| time (UTC) | temp F | wind direction | speed MPH | gust MPH | rain 1hr in | rain 24hr in | rain mn in | humidity % | barometer mb |
| 20260504185501 | 54 | 98 | 3.0 | 3.0 | 0.00 | 0.09 | 0.09 | 82 | 1005.0 |
| 20260504184957 | 53 | 124 | 2.0 | 4.0 | 0.00 | 0.09 | 0.09 | 83 | 1005.0 |
| 20260504184453 | 53 | 28 | 0.0 | 3.0 | 0.00 | 0.09 | 0.09 | 82 | 1005.2 |
| 20260504183948 | 52 | 275 | 0.0 | 1.0 | 0.00 | 0.09 | 0.09 | 84 | 1005.1 |
| 20260504183446 | 52 | 324 | 0.0 | 0.0 | 0.00 | 0.09 | 0.09 | 86 | 1005.2 |
| 20260504182944 | 51 | 324 | 0.0 | 0.0 | 0.00 | 0.09 | 0.09 | 85 | 1005.0 |
| 20260504182440 | 50 | 291 | 0.0 | 2.0 | 0.00 | 0.09 | 0.09 | 87 | 1005.3 |
| 20260504181938 | 51 | 209 | 2.0 | 3.0 | 0.00 | 0.09 | 0.09 | 86 | 1005.2 |
| 20260504181434 | 50 | 107 | 2.0 | 4.0 | 0.00 | 0.09 | 0.09 | 88 | 1005.2 |
| 20260504180933 | 50 | 139 | 4.0 | 4.0 | 0.00 | 0.09 | 0.09 | 88 | 1005.0 |
| 20260504180432 | 49 | 161 | 3.0 | 3.0 | 0.00 | 0.09 | 0.09 | 87 | 1005.4 |
| 20260504175930 | 49 | 141 | 2.0 | 3.0 | 0.00 | 0.09 | 0.09 | 91 | 1005.3 |
| 20260504175426 | 49 | 94 | 2.0 | 2.0 | 0.00 | 0.09 | 0.09 | 92 | 1005.3 |
| 20260504174924 | 49 | 98 | 0.0 | 3.0 | 0.00 | 0.09 | 0.09 | 93 | 1005.5 |
| 20260504174421 | 48 | 164 | 1.0 | 2.0 | 0.00 | 0.09 | 0.09 | 93 | 1005.3 |
| 20260504173919 | 48 | 78 | 1.0 | 2.0 | 0.00 | 0.09 | 0.09 | 93 | 1005.3 |
| 20260504173415 | 48 | 234 | 1.0 | 2.0 | 0.00 | 0.09 | 0.09 | 93 | 1005.5 |
| 20260504172913 | 48 | 159 | 0.0 | 2.0 | 0.00 | 0.09 | 0.09 | 94 | 1005.6 |
| 20260504172408 | 48 | 89 | 1.0 | 2.0 | 0.00 | 0.09 | 0.09 | 94 | 1005.5 |
| 20260504171905 | 47 | 113 | 4.0 | 4.0 | 0.00 | 0.09 | 0.09 | 96 | 1005.4 |
| 20260504171402 | 47 | 102 | 2.0 | 3.0 | 0.00 | 0.09 | 0.09 | 96 | 1005.6 |
| 20260504170859 | 47 | 123 | 2.0 | 2.0 | 0.00 | 0.09 | 0.09 | 97 | 1005.4 |
| 20260504170355 | 46 | 86 | 1.0 | 2.0 | 0.00 | 0.09 | 0.09 | 98 | 1005.5 |
| 20260504160314 | 46 | 134 | 2.0 | 2.0 | 0.05 | 0.08 | 0.08 | 95 | 1005.6 |
| 20260504150739 | 51 | 221 | 0.0 | 6.0 | 0.00 | 0.00 | 0.00 | 75 | 1004.7 |
| 20260504150236 | 52 | 341 | 0.0 | 4.0 | 0.00 | 0.00 | 0.00 | 71 | 1004.4 |
| 20260504141205 | 50 | 150 | 2.0 | 3.0 | 0.00 | 0.00 | 0.00 | 76 | 1004.3 |
| 20260504140702 | 50 | 197 | 0.0 | 2.0 | 0.00 | 0.00 | 0.00 | 75 | 1004.4 |
| 20260504140157 | 50 | 223 | 1.0 | 3.0 | 0.00 | 0.00 | 0.00 | 75 | 1004.3 |
| 20260504130626 | 48 | 163 | 4.0 | 6.0 | 0.00 | 0.00 | 0.00 | 83 | 1004.8 |
| 20260504130123 | 48 | 220 | 1.0 | 6.0 | 0.00 | 0.00 | 0.00 | 83 | 1005.0 |
| 20260504110514 | 39 | 97 | 0.0 | 0.0 | 0.00 | 0.00 | 0.00 | 90 | 1006.0 |
| 20260504100436 | 36 | 126 | 0.0 | 0.0 | 0.00 | 0.00 | 0.00 | 89 | 1006.0 |
| 20260504081824 | 32 | 289 | 0.0 | 0.0 | 0.00 | 0.00 | 0.00 | 97 | 1005.8 |
| 20260504081320 | 31 | 250 | 1.0 | 2.0 | 0.00 | 0.00 | 0.00 | 97 | 1005.7 |
| 20260504080816 | 31 | 307 | 0.0 | 0.0 | 0.00 | 0.00 | 0.00 | 98 | 1005.8 |
| 20260504080313 | 31 | 304 | 0.0 | 0.0 | 0.00 | 0.00 | 0.00 | 98 | 1005.9 |
| 20260504070240 | 31 | 270 | 0.0 | 0.0 | 0.00 | 0.00 | 0.00 | 95 | 1005.9 |
| 20260504060201 | 30 | 240 | 3.0 | 3.0 | 0.00 | 0.00 | 0.00 | 92 | 1006.0 |
| 20260504050629 | 33 | 154 | 0.0 | 0.0 | 0.00 | 0.00 | 0.00 | 85 | 1006.0 |
| 20260504050126 | 32 | 163 | 0.0 | 1.0 | 0.00 | 0.00 | 0.00 | 89 | 1006.0 |
| 20260504045623 | 32 | 162 | 1.0 | 1.0 | 0.00 | 0.00 | 0.00 | 90 | 1006.2 |
| 20260504045118 | 33 | 145 | 1.0 | 1.0 | 0.00 | 0.00 | 0.00 | 88 | 1006.2 |
| 20260504044616 | 32 | 159 | 1.0 | 1.0 | 0.00 | 0.00 | 0.00 | 87 | 1005.9 |
| 20260504044112 | 32 | 104 | 0.0 | 0.0 | 0.00 | 0.00 | 0.00 | 88 | 1006.2 |
| 20260504043609 | 32 | 167 | 0.0 | 1.0 | 0.00 | 0.00 | 0.00 | 90 | 1006.2 |
| 20260504043107 | 32 | 135 | 1.0 | 1.0 | 0.00 | 0.00 | 0.00 | 88 | 1006.1 |
| 20260504042604 | 32 | 126 | 1.0 | 2.0 | 0.00 | 0.00 | 0.00 | 88 | 1006.2 |
| 20260504042100 | 31 | 123 | 2.0 | 2.0 | 0.00 | 0.00 | 0.00 | 89 | 1006.2 |
| 20260504041556 | 32 | 106 | 0.0 | 1.0 | 0.00 | 0.00 | 0.00 | 88 | 1006.2 |
| 20260504041053 | 31 | 115 | 0.0 | 0.0 | 0.00 | 0.00 | 0.00 | 89 | 1006.0 |
| 20260504040550 | 32 | 120 | 0.0 | 0.0 | 0.00 | 0.00 | 0.00 | 90 | 1006.1 |
| 20260504040047 | 31 | 106 | 0.0 | 0.0 | 0.00 | 0.19 | 0.19 | 92 | 1006.0 |
| 20260504035543 | 31 | 107 | 0.0 | 0.0 | 0.00 | 0.19 | 0.19 | 92 | 1006.0 |
| 20260504035040 | 31 | 104 | 0.0 | 0.0 | 0.00 | 0.19 | 0.19 | 92 | 1005.9 |
| 20260504034538 | 30 | 103 | 0.0 | 0.0 | 0.00 | 0.19 | 0.19 | 92 | 1005.9 |
| 20260504034034 | 31 | 120 | 0.0 | 0.0 | 0.00 | 0.19 | 0.19 | 92 | 1006.0 |
| 20260504033533 | 30 | 122 | 0.0 | 0.0 | 0.00 | 0.19 | 0.19 | 93 | 1006.0 |
| 20260504033030 | 30 | 107 | 0.0 | 0.0 | 0.00 | 0.19 | 0.19 | 93 | 1005.8 |
| 20260504032527 | 30 | 83 | 0.0 | 1.0 | 0.00 | 0.19 | 0.19 | 93 | 1006.0 |
| 20260504032023 | 31 | 82 | 0.0 | 0.0 | 0.00 | 0.19 | 0.19 | 92 | 1006.1 |
| 20260504031520 | 31 | 83 | 0.0 | 0.0 | 0.00 | 0.19 | 0.19 | 91 | 1006.0 |
| 20260504031016 | 32 | 135 | 0.0 | 1.0 | 0.00 | 0.19 | 0.19 | 90 | 1006.0 |
| 20260504030514 | 33 | 137 | 1.0 | 3.0 | 0.00 | 0.19 | 0.19 | 87 | 1006.1 |
| 20260504030010 | 32 | 166 | 1.0 | 2.0 | 0.00 | 0.19 | 0.19 | 92 | 1005.9 |
| 20260504025507 | 32 | 108 | 0.0 | 1.0 | 0.00 | 0.19 | 0.19 | 90 | 1006.1 |
| 20260504025004 | 31 | 88 | 0.0 | 0.0 | 0.00 | 0.19 | 0.19 | 92 | 1006.0 |
| 20260504024500 | 32 | 104 | 0.0 | 0.0 | 0.00 | 0.19 | 0.19 | 92 | 1006.0 |
| 20260504023958 | 32 | 146 | 0.0 | 0.0 | 0.00 | 0.19 | 0.19 | 91 | 1005.9 |
| 20260504023454 | 33 | 147 | 0.0 | 1.0 | 0.00 | 0.19 | 0.19 | 90 | 1005.9 |
| 20260504022950 | 33 | 132 | 1.0 | 1.0 | 0.00 | 0.19 | 0.19 | 90 | 1005.9 |
| 20260504022446 | 33 | 141 | 0.0 | 0.0 | 0.00 | 0.19 | 0.19 | 90 | 1006.0 |
| 20260504021943 | 33 | 179 | 0.0 | 0.0 | 0.00 | 0.19 | 0.19 | 94 | 1006.1 |
| 20260504021440 | 33 | 180 | 0.0 | 1.0 | 0.00 | 0.19 | 0.19 | 93 | 1006.0 |
| 20260504020937 | 34 | 180 | 0.0 | 1.0 | 0.00 | 0.19 | 0.19 | 90 | 1006.1 |
| 20260504020434 | 34 | 122 | 0.0 | 1.0 | 0.00 | 0.19 | 0.19 | 89 | 1006.0 |
| 20260504015931 | 33 | 86 | 0.0 | 0.0 | 0.00 | 0.19 | 0.19 | 91 | 1006.0 |
| 20260504015427 | 33 | 86 | 0.0 | 0.0 | 0.00 | 0.19 | 0.19 | 89 | 1006.1 |
| 20260504014923 | 33 | 86 | 0.0 | 0.0 | 0.00 | 0.19 | 0.19 | 89 | 1006.0 |
| 20260504014419 | 33 | 86 | 0.0 | 0.0 | 0.00 | 0.19 | 0.19 | 88 | 1005.9 |
| 20260504013916 | 33 | 86 | 0.0 | 0.0 | 0.00 | 0.19 | 0.19 | 88 | 1006.1 |
| 20260504013415 | 33 | 86 | 0.0 | 0.0 | 0.00 | 0.19 | 0.19 | 89 | 1006.1 |
| 20260504012910 | 33 | 86 | 0.0 | 0.0 | 0.00 | 0.19 | 0.19 | 88 | 1005.9 |
| 20260504012408 | 34 | 86 | 0.0 | 0.0 | 0.00 | 0.19 | 0.19 | 88 | 1006.1 |
| 20260504011905 | 34 | 86 | 0.0 | 0.0 | 0.00 | 0.19 | 0.19 | 87 | 1006.1 |
| 20260504011402 | 34 | 86 | 0.0 | 0.0 | 0.00 | 0.19 | 0.19 | 88 | 1005.8 |
| 20260504010858 | 34 | 86 | 0.0 | 0.0 | 0.00 | 0.19 | 0.19 | 85 | 1006.0 |
| 20260504010354 | 35 | 86 | 0.0 | 0.0 | 0.00 | 0.19 | 0.19 | 86 | 1006.0 |
| 20260504005850 | 35 | 86 | 0.0 | 0.0 | 0.00 | 0.19 | 0.19 | 87 | 1005.9 |
| 20260504005347 | 35 | 86 | 0.0 | 0.0 | 0.00 | 0.19 | 0.19 | 86 | 1005.9 |
| 20260504004845 | 36 | 86 | 0.0 | 1.0 | 0.00 | 0.19 | 0.19 | 85 | 1005.9 |
| 20260504004343 | 36 | 86 | 0.0 | 1.0 | 0.00 | 0.19 | 0.19 | 85 | 1005.9 |
| 20260504003839 | 37 | 54 | 0.0 | 0.0 | 0.00 | 0.19 | 0.19 | 84 | 1005.8 |
| 20260504003336 | 38 | 333 | 0.0 | 0.0 | 0.00 | 0.19 | 0.19 | 78 | 1005.7 |
| 20260504002832 | 38 | 332 | 0.0 | 0.0 | 0.00 | 0.19 | 0.19 | 76 | 1005.7 |
| 20260504002329 | 40 | 334 | 0.0 | 0.0 | 0.00 | 0.19 | 0.19 | 72 | 1005.7 |
| 20260504001827 | 40 | 339 | 1.0 | 2.0 | 0.00 | 0.19 | 0.19 | 71 | 1005.5 |
| 20260504001324 | 39 | 282 | 0.0 | 2.0 | 0.00 | 0.19 | 0.19 | 73 | 1005.6 |
| 20260504000821 | 40 | 354 | 1.0 | 1.0 | 0.00 | 0.19 | 0.19 | 71 | 1005.4 |
| 20260504000318 | 41 | 336 | 0.0 | 2.0 | 0.00 | 0.19 | 0.19 | 71 | 1005.4 |
| 20260503235815 | 42 | 331 | 0.0 | 2.0 | 0.00 | 0.19 | 0.19 | 68 | 1005.5 |
| 20260503235313 | 42 | 316 | 0.0 | 2.0 | 0.00 | 0.19 | 0.19 | 67 | 1005.5 |
| 20260503234810 | 42 | 296 | 3.0 | 4.0 | 0.00 | 0.19 | 0.19 | 67 | 1005.6 |
| 20260503234308 | 42 | 276 | 1.0 | 1.0 | 0.00 | 0.19 | 0.19 | 67 | 1005.4 |
| 20260503233806 | 42 | 338 | 0.0 | 0.0 | 0.00 | 0.19 | 0.19 | 67 | 1005.2 |
| 20260503233301 | 42 | 325 | 2.0 | 4.0 | 0.00 | 0.19 | 0.19 | 66 | 1005.6 |
| 20260503232758 | 42 | 300 | 1.0 | 2.0 | 0.00 | 0.19 | 0.19 | 67 | 1005.5 |
| 20260503232255 | 42 | 311 | 4.0 | 4.0 | 0.00 | 0.19 | 0.19 | 66 | 1005.5 |
| 20260503231753 | 42 | 294 | 2.0 | 3.0 | 0.00 | 0.19 | 0.19 | 66 | 1005.5 |
| 20260503231250 | 42 | 307 | 0.0 | 2.0 | 0.00 | 0.19 | 0.19 | 67 | 1005.2 |
| 20260503230745 | 42 | 331 | 1.0 | 2.0 | 0.00 | 0.19 | 0.19 | 68 | 1005.6 |
| 20260503230243 | 42 | 227 | 3.0 | 10.0 | 0.00 | 0.19 | 0.19 | 67 | 1005.1 |
| 20260503225741 | 43 | 308 | 1.0 | 7.0 | 0.00 | 0.19 | 0.19 | 66 | 1005.3 |
| 20260503225241 | 43 | 257 | 2.0 | 4.0 | 0.00 | 0.19 | 0.19 | 66 | 1005.3 |
| 20260503224738 | 43 | 265 | 5.0 | 6.0 | 0.00 | 0.19 | 0.19 | 65 | 1005.4 |
| 20260503224236 | 43 | 353 | 2.0 | 3.0 | 0.00 | 0.19 | 0.19 | 67 | 1005.4 |
| 20260503223733 | 43 | 272 | 1.0 | 4.0 | 0.00 | 0.19 | 0.19 | 66 | 1005.3 |
| 20260503223231 | 43 | 339 | 0.0 | 3.0 | 0.00 | 0.19 | 0.19 | 66 | 1005.3 |
| 20260503222727 | 43 | 292 | 2.0 | 6.0 | 0.00 | 0.19 | 0.19 | 66 | 1005.1 |
| 20260503222225 | 42 | 292 | 2.0 | 4.0 | 0.00 | 0.19 | 0.19 | 68 | 1005.3 |
| 20260503221723 | 42 | 329 | 0.0 | 3.0 | 0.00 | 0.19 | 0.19 | 71 | 1005.2 |
| 20260503221220 | 42 | 287 | 1.0 | 4.0 | 0.00 | 0.19 | 0.19 | 69 | 1005.2 |
| 20260503220716 | 42 | 303 | 3.0 | 6.0 | 0.00 | 0.19 | 0.19 | 69 | 1005.2 |
| 20260503220214 | 42 | 359 | 2.0 | 9.0 | 0.00 | 0.19 | 0.19 | 68 | 1005.3 |
| 20260503215711 | 42 | 278 | 6.0 | 7.0 | 0.00 | 0.19 | 0.19 | 68 | 1005.2 |
| 20260503215208 | 42 | 280 | 5.0 | 8.0 | 0.00 | 0.19 | 0.19 | 67 | 1005.1 |
| 20260503214706 | 42 | 1 | 6.0 | 10.0 | 0.00 | 0.19 | 0.19 | 68 | 1005.3 |
| 20260503214202 | 42 | 347 | 4.0 | 7.0 | 0.00 | 0.19 | 0.19 | 67 | 1005.3 |
| 20260503213700 | 42 | 326 | 6.0 | 9.0 | 0.00 | 0.19 | 0.19 | 67 | 1005.2 |
| 20260503213157 | 43 | 280 | 4.0 | 7.0 | 0.00 | 0.19 | 0.19 | 65 | 1005.2 |
| 20260503212654 | 43 | 291 | 5.0 | 8.0 | 0.00 | 0.19 | 0.19 | 62 | 1005.1 |
| 20260503212151 | 44 | 291 | 9.0 | 13.0 | 0.00 | 0.19 | 0.19 | 62 | 1004.9 |
| 20260503211649 | 44 | 309 | 6.0 | 9.0 | 0.00 | 0.19 | 0.19 | 61 | 1005.0 |
| 20260503211144 | 44 | 347 | 11.0 | 16.0 | 0.00 | 0.19 | 0.19 | 59 | 1005.1 |
| 20260503210641 | 44 | 303 | 5.0 | 8.0 | 0.00 | 0.19 | 0.19 | 60 | 1005.0 |
| 20260503210138 | 44 | 298 | 5.0 | 7.0 | 0.00 | 0.19 | 0.19 | 60 | 1004.9 |
| 20260503205633 | 44 | 300 | 4.0 | 8.0 | 0.00 | 0.19 | 0.19 | 61 | 1004.9 |
| 20260503205130 | 44 | 335 | 8.0 | 9.0 | 0.00 | 0.19 | 0.19 | 61 | 1005.0 |
| 20260503204627 | 43 | 285 | 3.0 | 8.0 | 0.00 | 0.19 | 0.19 | 63 | 1004.9 |
| 20260503204125 | 43 | 265 | 3.0 | 7.0 | 0.00 | 0.19 | 0.19 | 63 | 1005.1 |
| 20260503203621 | 43 | 273 | 5.0 | 13.0 | 0.00 | 0.19 | 0.19 | 64 | 1005.0 |
| 20260503203119 | 43 | 274 | 3.0 | 10.0 | 0.00 | 0.19 | 0.19 | 64 | 1004.9 |
| 20260503202616 | 43 | 3 | 1.0 | 9.0 | 0.00 | 0.19 | 0.19 | 66 | 1005.0 |
| 20260503202114 | 43 | 299 | 2.0 | 3.0 | 0.00 | 0.19 | 0.19 | 69 | 1005.0 |
| 20260503201612 | 43 | 331 | 3.0 | 9.0 | 0.00 | 0.19 | 0.19 | 67 | 1004.9 |
| 20260503201109 | 43 | 353 | 2.0 | 8.0 | 0.00 | 0.19 | 0.19 | 65 | 1004.7 |
| 20260503200605 | 43 | 353 | 6.0 | 11.0 | 0.00 | 0.19 | 0.19 | 63 | 1004.9 |
| 20260503195559 | 44 | 306 | 2.0 | 6.0 | 0.00 | 0.19 | 0.19 | 63 | 1005.0 |
| 20260503195055 | 44 | 332 | 7.0 | 9.0 | 0.00 | 0.19 | 0.19 | 60 | 1004.7 |
| 20260503194552 | 44 | 318 | 5.0 | 7.0 | 0.00 | 0.19 | 0.19 | 60 | 1004.8 |
| 20260503194052 | 44 | 355 | 5.0 | 9.0 | 0.00 | 0.19 | 0.19 | 60 | 1004.9 |
| 20260503193549 | 44 | 13 | 9.0 | 14.0 | 0.00 | 0.19 | 0.19 | 59 | 1005.0 |
| 20260503193045 | 45 | 258 | 6.0 | 7.0 | 0.00 | 0.19 | 0.19 | 62 | 1004.9 |
| 20260503192541 | 44 | 354 | 4.0 | 10.0 | 0.00 | 0.19 | 0.19 | 61 | 1004.8 |
| 20260503192037 | 44 | 295 | 1.0 | 4.0 | 0.00 | 0.19 | 0.19 | 63 | 1005.0 |
| 20260503191534 | 43 | 317 | 0.0 | 4.0 | 0.00 | 0.19 | 0.19 | 68 | 1005.0 |
| 20260503191031 | 43 | 286 | 3.0 | 10.0 | 0.00 | 0.19 | 0.19 | 65 | 1004.9 |
| 20260503190528 | 43 | 280 | 5.0 | 11.0 | 0.00 | 0.19 | 0.19 | 65 | 1005.0 |
| 20260503190025 | 43 | 333 | 7.0 | 10.0 | 0.00 | 0.19 | 0.19 | 66 | 1005.1 |